TimeMST,TemperatureF,Dew PointF,Humidity,Sea Level PressureIn,VisibilityMPH,Wind Direction,Wind SpeedMPH,Gust SpeedMPH,PrecipitationIn,Events,Conditions,WindDirDegrees,DateUTC
12:53 AM,41.0,15.1,35,29.88,10.0,West,6.9,-,N/A,,Clear,260,2014-01-26 07:53:00
1:53 AM,39.0,14.0,36,29.88,10.0,NW,4.6,-,N/A,,Clear,310,2014-01-26 08:53:00
2:53 AM,36.0,15.1,43,29.88,10.0,ESE,5.8,-,N/A,,Clear,110,2014-01-26 09:53:00
3:53 AM,32.0,17.1,54,29.88,10.0,South,4.6,-,N/A,,Clear,180,2014-01-26 10:53:00
4:53 AM,32.0,17.1,54,29.87,10.0,South,5.8,-,N/A,,Clear,180,2014-01-26 11:53:00
5:53 AM,32.0,16.0,52,29.88,10.0,South,9.2,-,N/A,,Clear,180,2014-01-26 12:53:00
6:53 AM,33.1,15.1,48,29.86,10.0,South,6.9,-,N/A,,Clear,170,2014-01-26 13:53:00
7:53 AM,33.1,17.1,52,29.84,10.0,Calm,Calm,-,N/A,,Clear,0,2014-01-26 14:53:00
8:53 AM,44.1,14.0,30,29.80,10.0,SW,13.8,-,N/A,,Partly Cloudy,230,2014-01-26 15:53:00
9:53 AM,48.9,14.0,25,29.78,10.0,SW,11.5,-,N/A,,Scattered Clouds,230,2014-01-26 16:53:00
10:53 AM,52.0,10.9,19,29.76,10.0,West,5.8,-,N/A,,Partly Cloudy,270,2014-01-26 17:53:00
11:53 AM,55.9,10.0,16,29.75,10.0,NNW,17.3,-,N/A,,Partly Cloudy,330,2014-01-26 18:53:00
12:53 PM,55.9,10.0,16,29.71,10.0,NNW,27.6,35.7,N/A,,Scattered Clouds,330,2014-01-26 19:53:00
1:53 PM,55.9,9.0,15,29.72,10.0,NW,15.0,20.7,N/A,,Scattered Clouds,320,2014-01-26 20:53:00
2:53 PM,54.0,10.9,18,29.77,10.0,NNW,24.2,36.8,N/A,,Scattered Clouds,330,2014-01-26 21:53:00
3:53 PM,50.0,12.0,22,29.85,10.0,NNW,19.6,28.8,N/A,,Mostly Cloudy,330,2014-01-26 22:53:00
4:07 PM,46.0,16.0,30,29.87,10.0,NE,18.4,33.4,N/A,,Mostly Cloudy,40,2014-01-26 23:07:00
4:53 PM,37.9,24.1,57,29.97,10.0,NE,21.9,28.8,N/A,,Mostly Cloudy,40,2014-01-26 23:53:00
5:49 PM,33.8,24.8,70,30.00,10.0,NNE,16.1,26.5,N/A,,Mostly Cloudy,30,2014-01-27 00:49:00
5:53 PM,33.1,24.1,70,30.08,10.0,NNE,16.1,26.5,N/A,,Mostly Cloudy,20,2014-01-27 00:53:00
6:24 PM,27.0,21.0,78,30.05,7.0,ENE,16.1,27.6,0.00,Snow,Light Snow,60,2014-01-27 01:24:00
6:53 PM,24.1,17.1,75,30.18,7.0,NE,16.1,-,0.00,Snow,Light Snow,40,2014-01-27 01:53:00
7:53 PM,21.9,14.0,72,30.23,7.0,NNE,13.8,-,0.00,Snow,Light Snow,30,2014-01-27 02:53:00
8:53 PM,19.9,9.0,62,30.20,9.0,NNE,12.7,-,0.00,Snow,Light Snow,30,2014-01-27 03:53:00
9:16 PM,19.9,10.0,65,30.12,9.0,NNE,8.1,-,0.00,Snow,Light Snow,30,2014-01-27 04:16:00
9:53 PM,19.0,12.9,77,30.18,4.0,NE,9.2,-,0.00,Snow,Light Snow,40,2014-01-27 04:53:00
10:00 PM,19.0,12.0,74,30.11,4.0,NE,11.5,-,0.00,Snow,Light Snow,40,2014-01-27 05:00:00
10:53 PM,17.1,7.0,65,30.17,9.0,NE,8.1,-,0.00,Snow,Light Snow,40,2014-01-27 05:53:00
11:53 PM,16.0,8.1,71,30.16,8.0,ENE,8.1,-,0.00,Snow,Light Snow,60,2014-01-27 06:53:00